Doha, Qatar

9:55 AM AST on February 21, 2017 (GMT +0300)
Doha International

Weather History for OTBD - January, 2013

Change the Weather History Date:

Thursday, January 17, 2013

  Actual Average Record
Temperature  
Mean Temperature 63 °F -  
Max Temperature 71 °F 72 °F 84 °F (1999)
Min Temperature 55 °F 56 °F 46 °F (2008)
Degree Days  
Heating Degree Days 2    
Growing Degree Days 13 (Base 50)    
Moisture  
Dew Point 45 °F    
Average Humidity 54    
Maximum Humidity 82    
Minimum Humidity 16    
Precipitation  
Precipitation 0.00 in 0.02 in - ()
Sea Level Pressure  
Sea Level Pressure 30.26 in    
Wind  
Wind Speed 7 mph ()    
Max Wind Speed 10 mph    
Max Gust Speed -    
Visibility 7.2 miles    
Events      
Averages and records for this station are not official NWS values.
T = Trace of Precipitation, MM = Missing Value Source: Averaged Metar Reports

Daily Weather History Graph

Daily Weather History Graph

Search for Another Location

Airport or City:

Trip Planner

Search our weather history database for the weather conditions in past years. The results will help you decide how hot, cold, wet, or windy it might be!

Date:

Astronomy

Jan. 17, 2013 Rise Set
Actual Time 6:20 AM AST 5:06 PM AST
Civil Twilight 5:56 AM AST 5:31 PM AST
Nautical Twilight 5:28 AM AST 5:59 PM AST
Astronomical Twilight 5:00 AM AST 6:27 PM AST
Moon 9:57 AM AST (1/17) 10:49 PM AST (1/17)
Length of Visible Light 11h 35m
Length of Day
10h 46m
Waxing Crescent, 34% of the Moon is Illuminated
Jan 17
Waxing Crescent
Jan 19
First Quarter
Jan 27
Full
Feb 3
Last Quarter
Feb 10
New

Hourly Weather History & Observations

Time (AST) Temp. Dew Point Humidity Pressure Visibility Wind Dir Wind Speed Gust Speed Precip Events Conditions
12:00 AM 59.0 °F 50.0 °F 72% 30.24 in - NW 10.4 mph - N/A   Clear
12:30 AM 59.0 °F 48.2 °F 67% 30.24 in - WNW 10.4 mph - N/A   Clear
1:00 AM 59.0 °F 48.2 °F 67% 30.24 in - WNW 9.2 mph - N/A   Clear
1:30 AM 59.0 °F 48.2 °F 67% 30.24 in - WNW 8.1 mph - N/A   Clear
2:00 AM 59.0 °F 48.2 °F 67% 30.24 in - WNW 8.1 mph - N/A   Clear
2:30 AM 59.0 °F 48.2 °F 67% 30.24 in - WNW 6.9 mph - N/A   Clear
3:00 AM 58 °F 48 °F 59% 30.25 in 9 mi WNW 6.9 mph - -  
3:00 AM 57.2 °F 48.2 °F 72% 30.24 in - WNW 6.9 mph - N/A   Clear
3:30 AM 57.2 °F 48.2 °F 72% 30.24 in - West 5.8 mph - N/A   Clear
4:00 AM 57.2 °F 48.2 °F 72% 30.24 in - WNW 5.8 mph - N/A   Clear
4:30 AM 57.2 °F 48.2 °F 72% 30.24 in - WNW 5.8 mph - N/A   Clear
5:00 AM 57.2 °F 48.2 °F 72% 30.24 in - WNW 4.6 mph - N/A   Clear
5:30 AM 57.2 °F 50.0 °F 77% 30.24 in - West 4.6 mph - N/A   Clear
6:30 AM 55.4 °F 50.0 °F 82% 30.27 in 5.0 mi West 5.8 mph - N/A   Unknown
7:00 AM 57.2 °F 50.0 °F 77% 30.27 in 5.0 mi West 6.9 mph - N/A   Unknown
7:30 AM 57.2 °F 50.0 °F 77% 30.30 in - West 6.9 mph - N/A   Clear
8:00 AM 59.0 °F 48.2 °F 67% 30.30 in - West 5.8 mph - N/A   Clear
8:30 AM 60.8 °F 48.2 °F 63% 30.33 in - West 6.9 mph - N/A   Clear
9:00 AM 62 °F 49 °F 52% 30.34 in 6 mi WNW 6.9 mph - -  
9:00 AM 62.6 °F 48.2 °F 59% 30.33 in - WNW 6.9 mph - N/A   Clear
9:30 AM 64.4 °F 50.0 °F 59% 30.33 in - West 5.8 mph - N/A   Clear
10:00 AM 66.2 °F 48.2 °F 52% 30.33 in - WNW 9.2 mph - N/A   Clear
10:30 AM 66.2 °F 48.2 °F 52% 30.30 in - WNW 9.2 mph - N/A   Clear
11:00 AM 68.0 °F 46.4 °F 46% 30.30 in - NW 9.2 mph - N/A   Clear
12:00 PM 69.8 °F 42.8 °F 38% 30.27 in - North 8.1 mph - N/A   Clear
12:30 PM 69.8 °F 39.2 °F 33% 30.24 in - North 9.2 mph - N/A   Clear
1:00 PM 69.8 °F 41.0 °F 35% 30.24 in - NNE 9.2 mph - N/A   Clear
2:00 PM 69.8 °F 35.6 °F 28% 30.24 in - NNE 9.2 mph - N/A   Clear
2:30 PM 71.6 °F 33.8 °F 25% 30.24 in - NNE 9.2 mph - N/A   Clear
3:00 PM 70 °F 34 °F 16% 30.25 in 9 mi North 9.2 mph - -   Clear
3:00 PM 69.8 °F 33.8 °F 27% 30.24 in - North 9.2 mph - N/A   Clear
3:30 PM 69.8 °F 33.8 °F 27% 30.24 in - NNE 9.2 mph - N/A   Clear
4:00 PM 69.8 °F 35.6 °F 28% 30.24 in - NNE 8.1 mph - N/A   Clear
5:00 PM 68.0 °F 42.8 °F 40% 30.24 in - NE 4.6 mph - N/A   Clear
5:30 PM 66.2 °F 46.4 °F 49% 30.24 in - ENE 4.6 mph - N/A   Clear
6:00 PM 66.2 °F 48.2 °F 52% 30.24 in - ENE 4.6 mph - N/A   Clear
6:30 PM 64.4 °F 48.2 °F 56% 30.27 in - ENE 4.6 mph - N/A   Clear
7:00 PM 64.4 °F 50.0 °F 59% 30.27 in - Variable 1.2 mph - N/A   Clear
7:30 PM 64.4 °F 50.0 °F 59% 30.27 in - Calm Calm - N/A   Clear
8:00 PM 64.4 °F 46.4 °F 52% 30.27 in - WNW 3.5 mph - N/A   Clear
8:30 PM 64.4 °F 48.2 °F 56% 30.27 in - NW 3.5 mph - N/A   Clear
9:00 PM 64 °F 44 °F 36% 30.28 in 9 mi NNW 5.8 mph - -   Scattered Clouds
9:00 PM 64.4 °F 42.8 °F 45% 30.27 in - NNW 5.8 mph - N/A   Clear
9:30 PM 64.4 °F 41.0 °F 42% 30.24 in - NNW 4.6 mph - N/A   Clear
10:00 PM 62.6 °F 41.0 °F 45% 30.24 in - NNW 5.8 mph - N/A   Clear
10:30 PM 62.6 °F 42.8 °F 48% 30.24 in - NNW 4.6 mph - N/A   Clear
11:00 PM 62.6 °F 42.8 °F 48% 30.24 in - NNW 5.8 mph - N/A   Clear